Year,Month,Day,Hour,Minute,Value (Times are PST for temperature in C)
2008,07,13,00,00,15.90
2008,07,13,00,01,15.90
2008,07,13,00,02,15.90
2008,07,13,00,03,15.90
2008,07,13,00,04,15.90
2008,07,13,00,05,15.90
2008,07,13,00,06,15.90
2008,07,13,00,07,15.90
2008,07,13,00,08,16.00
2008,07,13,00,09,16.00
2008,07,13,00,10,16.00
2008,07,13,00,11,16.00
2008,07,13,00,12,16.00
2008,07,13,00,13,16.00
2008,07,13,00,14,15.90
2008,07,13,00,15,15.90
2008,07,13,00,16,15.90
2008,07,13,00,17,15.90
2008,07,13,00,18,15.90
2008,07,13,00,19,15.80
2008,07,13,00,20,15.80
2008,07,13,00,21,15.80
2008,07,13,00,22,15.80
2008,07,13,00,23,15.80
2008,07,13,00,24,15.80
2008,07,13,00,25,15.80
2008,07,13,00,26,15.80
2008,07,13,00,27,15.80
2008,07,13,00,28,15.80
2008,07,13,00,29,15.80
2008,07,13,00,30,15.80
2008,07,13,00,31,15.90
2008,07,13,00,32,15.90
2008,07,13,00,33,15.90
2008,07,13,00,34,15.90
2008,07,13,00,35,16.00
2008,07,13,00,36,16.00
2008,07,13,00,37,16.00
2008,07,13,00,38,16.00
2008,07,13,00,39,16.10
2008,07,13,00,40,16.10
2008,07,13,00,41,16.10
2008,07,13,00,42,16.10
2008,07,13,00,43,16.10
2008,07,13,00,44,16.10
2008,07,13,00,45,16.10
2008,07,13,00,46,16.10
2008,07,13,00,47,16.10
2008,07,13,00,48,16.10
2008,07,13,00,49,16.10
2008,07,13,00,50,16.10
2008,07,13,00,51,16.10
2008,07,13,00,52,16.10
2008,07,13,00,53,16.10
2008,07,13,00,54,16.10
2008,07,13,00,55,16.10
2008,07,13,00,56,16.00
2008,07,13,00,57,16.00
2008,07,13,00,58,16.00
2008,07,13,00,59,16.00
2008,07,13,01,00,16.00
2008,07,13,01,01,16.00
2008,07,13,01,02,16.00
2008,07,13,01,03,16.10
2008,07,13,01,04,16.10
2008,07,13,01,05,16.10
2008,07,13,01,06,16.10
2008,07,13,01,07,16.20
2008,07,13,01,08,16.20
2008,07,13,01,09,16.20
2008,07,13,01,10,16.20
2008,07,13,01,11,16.20
2008,07,13,01,12,16.20
2008,07,13,01,13,16.20
2008,07,13,01,14,16.20
2008,07,13,01,15,16.20
2008,07,13,01,16,16.30
2008,07,13,01,17,16.30
2008,07,13,01,18,16.30
2008,07,13,01,19,16.30
2008,07,13,01,20,16.30
2008,07,13,01,21,16.20
2008,07,13,01,22,16.20
2008,07,13,01,23,16.20
2008,07,13,01,24,16.20
2008,07,13,01,25,16.20
2008,07,13,01,26,16.20
2008,07,13,01,27,16.20
2008,07,13,01,28,16.10
2008,07,13,01,29,16.10
2008,07,13,01,30,16.10
2008,07,13,01,31,16.10
2008,07,13,01,32,16.10
2008,07,13,01,33,16.10
2008,07,13,01,34,16.10
2008,07,13,01,35,16.10
2008,07,13,01,36,16.10
2008,07,13,01,37,16.10
2008,07,13,01,38,16.10
2008,07,13,01,39,16.10
2008,07,13,01,40,16.10
2008,07,13,01,41,16.10
2008,07,13,01,42,16.10
2008,07,13,01,43,16.10
2008,07,13,01,44,16.10
2008,07,13,01,45,16.10
2008,07,13,01,46,16.10
2008,07,13,01,47,16.10
2008,07,13,01,48,16.10
2008,07,13,01,49,16.10
2008,07,13,01,50,16.10
2008,07,13,01,51,16.10
2008,07,13,01,52,16.10
2008,07,13,01,53,16.10
2008,07,13,01,54,16.00
2008,07,13,01,55,16.00
2008,07,13,01,56,16.00
2008,07,13,01,57,16.00
2008,07,13,01,58,15.90
2008,07,13,01,59,15.90
2008,07,13,02,00,15.90
2008,07,13,02,01,15.90
2008,07,13,02,02,16.00
2008,07,13,02,03,16.00
2008,07,13,02,04,16.00
2008,07,13,02,05,16.00
2008,07,13,02,06,16.00
2008,07,13,02,07,16.00
2008,07,13,02,08,16.00
2008,07,13,02,09,16.00
2008,07,13,02,10,16.00
2008,07,13,02,11,16.10
2008,07,13,02,12,16.10
2008,07,13,02,13,16.10
2008,07,13,02,14,16.10
2008,07,13,02,15,16.20
2008,07,13,02,16,16.20
2008,07,13,02,17,16.30
2008,07,13,02,18,16.30
2008,07,13,02,19,16.30
2008,07,13,02,20,16.30
2008,07,13,02,21,16.30
2008,07,13,02,22,16.30
2008,07,13,02,23,16.30
2008,07,13,02,24,16.30
2008,07,13,02,25,16.30
2008,07,13,02,26,16.30
2008,07,13,02,27,16.30
2008,07,13,02,28,16.30
2008,07,13,02,29,16.30
2008,07,13,02,30,16.30
2008,07,13,02,31,16.30
2008,07,13,02,32,16.30
2008,07,13,02,33,16.30
2008,07,13,02,34,16.20
2008,07,13,02,35,16.20
2008,07,13,02,36,16.20
2008,07,13,02,37,16.10
2008,07,13,02,38,16.10
2008,07,13,02,39,16.00
2008,07,13,02,40,16.00
2008,07,13,02,41,15.90
2008,07,13,02,42,15.90
2008,07,13,02,43,15.90
2008,07,13,02,44,15.80
2008,07,13,02,45,15.80
2008,07,13,02,46,15.80
2008,07,13,02,47,15.80
2008,07,13,02,48,15.80
2008,07,13,02,49,15.80
2008,07,13,02,50,15.80
2008,07,13,02,51,15.80
2008,07,13,02,52,15.70
2008,07,13,02,53,15.70
2008,07,13,02,54,15.70
2008,07,13,02,55,15.70
2008,07,13,02,56,15.70
2008,07,13,02,57,15.70
2008,07,13,02,58,15.70
2008,07,13,02,59,15.70
2008,07,13,03,00,15.70
2008,07,13,03,01,15.70
2008,07,13,03,02,15.70
2008,07,13,03,03,15.70
2008,07,13,03,04,15.70
2008,07,13,03,05,15.60
2008,07,13,03,06,15.60
2008,07,13,03,07,15.60
2008,07,13,03,08,15.60
2008,07,13,03,09,15.50
2008,07,13,03,10,15.50
2008,07,13,03,11,15.40
2008,07,13,03,12,15.40
2008,07,13,03,13,15.40
2008,07,13,03,14,15.30
2008,07,13,03,15,15.30
2008,07,13,03,16,15.20
2008,07,13,03,17,15.20
2008,07,13,03,18,15.10
2008,07,13,03,19,15.10
2008,07,13,03,20,15.00
2008,07,13,03,21,15.00
2008,07,13,03,22,15.00
2008,07,13,03,23,15.00
2008,07,13,03,24,15.00
2008,07,13,03,25,15.00
2008,07,13,03,26,15.00
2008,07,13,03,27,15.00
2008,07,13,03,28,15.00
2008,07,13,03,29,15.00
2008,07,13,03,30,15.00
2008,07,13,03,31,15.00
2008,07,13,03,32,15.00
2008,07,13,03,33,15.00
2008,07,13,03,34,15.00
2008,07,13,03,35,15.00
2008,07,13,03,36,15.00
2008,07,13,03,37,15.00
2008,07,13,03,38,15.00
2008,07,13,03,39,15.00
2008,07,13,03,40,15.00
2008,07,13,03,41,15.00
2008,07,13,03,42,15.00
2008,07,13,03,43,15.00
2008,07,13,03,44,15.00
2008,07,13,03,45,15.00
2008,07,13,03,46,15.00
2008,07,13,03,47,15.00
2008,07,13,03,48,15.00
2008,07,13,03,49,15.00
2008,07,13,03,50,15.00
2008,07,13,03,51,15.00
2008,07,13,03,52,15.00
2008,07,13,03,53,15.00
2008,07,13,03,54,15.10
2008,07,13,03,55,15.10
2008,07,13,03,56,15.20
2008,07,13,03,57,15.20
2008,07,13,03,58,15.20
2008,07,13,03,59,15.20
2008,07,13,04,00,15.20
2008,07,13,04,01,15.20
2008,07,13,04,02,15.30
2008,07,13,04,03,15.30
2008,07,13,04,04,15.30
2008,07,13,04,05,15.30
2008,07,13,04,06,15.30
2008,07,13,04,07,15.30
2008,07,13,04,08,15.30
2008,07,13,04,09,15.30
2008,07,13,04,10,15.30
2008,07,13,04,11,15.20
2008,07,13,04,12,15.20
2008,07,13,04,13,15.20
2008,07,13,04,14,15.20
2008,07,13,04,15,15.20
2008,07,13,04,16,15.20
2008,07,13,04,17,15.20
2008,07,13,04,18,15.20
2008,07,13,04,19,15.20
2008,07,13,04,20,15.20
2008,07,13,04,21,15.20
2008,07,13,04,22,15.20
2008,07,13,04,23,15.20
2008,07,13,04,24,15.20
2008,07,13,04,25,15.20
2008,07,13,04,26,15.20
2008,07,13,04,27,15.30
2008,07,13,04,28,15.30
2008,07,13,04,29,15.30
2008,07,13,04,30,15.40
2008,07,13,04,31,15.40
2008,07,13,04,32,15.40
2008,07,13,04,33,15.40
2008,07,13,04,34,15.40
2008,07,13,04,35,15.40
2008,07,13,04,36,15.40
2008,07,13,04,37,15.40
2008,07,13,04,38,15.40
2008,07,13,04,39,15.40
2008,07,13,04,40,15.40
2008,07,13,04,41,15.40
2008,07,13,04,42,15.40
2008,07,13,04,43,15.40
2008,07,13,04,44,15.40
2008,07,13,04,45,15.50
2008,07,13,04,46,15.50
2008,07,13,04,47,15.60
2008,07,13,04,48,15.60
2008,07,13,04,49,15.70
2008,07,13,04,50,15.70
2008,07,13,04,51,15.70
2008,07,13,04,52,15.70
2008,07,13,04,53,15.80
2008,07,13,04,54,15.80
2008,07,13,04,55,15.80
2008,07,13,04,56,15.80
2008,07,13,04,57,15.80
2008,07,13,04,58,15.80
2008,07,13,04,59,15.80
2008,07,13,05,00,15.80
2008,07,13,05,01,15.80
2008,07,13,05,02,15.70
2008,07,13,05,03,15.70
2008,07,13,05,04,15.70
2008,07,13,05,05,15.70
2008,07,13,05,06,15.70
2008,07,13,05,07,15.60
2008,07,13,05,08,15.60
2008,07,13,05,09,15.60
2008,07,13,05,10,15.60
2008,07,13,05,11,15.60
2008,07,13,05,12,15.50
2008,07,13,05,13,15.50
2008,07,13,05,14,15.50
2008,07,13,05,15,15.50
2008,07,13,05,16,15.50
2008,07,13,05,17,15.50
2008,07,13,05,18,15.40
2008,07,13,05,19,15.40
2008,07,13,05,20,15.40
2008,07,13,05,21,15.40
2008,07,13,05,22,15.30
2008,07,13,05,23,15.30
2008,07,13,05,24,15.30
2008,07,13,05,25,15.30
2008,07,13,05,26,15.30
2008,07,13,05,27,15.30
2008,07,13,05,28,15.30
2008,07,13,05,29,15.30
2008,07,13,05,30,15.30
2008,07,13,05,31,15.20
2008,07,13,05,32,15.20
2008,07,13,05,33,15.20
2008,07,13,05,34,15.20
2008,07,13,05,35,15.20
2008,07,13,05,36,15.20
2008,07,13,05,37,15.20
2008,07,13,05,38,15.20
2008,07,13,05,39,15.20
2008,07,13,05,40,15.10
2008,07,13,05,41,15.10
2008,07,13,05,42,15.10
2008,07,13,05,43,15.10
2008,07,13,05,44,15.20
2008,07,13,05,45,15.20
2008,07,13,05,46,15.20
2008,07,13,05,47,15.30
2008,07,13,05,48,15.30
2008,07,13,05,49,15.30
2008,07,13,05,50,15.40
2008,07,13,05,51,15.40
2008,07,13,05,52,15.40
2008,07,13,05,53,15.40
2008,07,13,05,54,15.40
2008,07,13,05,55,15.40
2008,07,13,05,56,15.40
2008,07,13,05,57,15.40
2008,07,13,05,58,15.40
2008,07,13,05,59,15.40
2008,07,13,06,00,15.50
2008,07,13,06,01,15.50
2008,07,13,06,02,15.50
2008,07,13,06,03,15.60
2008,07,13,06,04,15.60
2008,07,13,06,05,15.70
2008,07,13,06,06,15.70
2008,07,13,06,07,15.80
2008,07,13,06,08,15.80
2008,07,13,06,09,15.90
2008,07,13,06,10,15.90
2008,07,13,06,11,15.90
2008,07,13,06,12,15.90
2008,07,13,06,13,15.90
2008,07,13,06,14,15.90
2008,07,13,06,15,15.90
2008,07,13,06,16,15.80
2008,07,13,06,17,15.80
2008,07,13,06,18,15.80
2008,07,13,06,19,15.80
2008,07,13,06,20,15.80
2008,07,13,06,21,15.80
2008,07,13,06,22,15.80
2008,07,13,06,23,15.80
2008,07,13,06,24,15.80
2008,07,13,06,25,15.80
2008,07,13,06,26,15.80
2008,07,13,06,27,15.90
2008,07,13,06,28,15.90
2008,07,13,06,29,15.90
2008,07,13,06,30,16.00
2008,07,13,06,31,16.00
2008,07,13,06,32,16.10
2008,07,13,06,33,16.20
2008,07,13,06,34,16.20
2008,07,13,06,35,16.30
2008,07,13,06,36,16.30
2008,07,13,06,37,16.40
2008,07,13,06,38,16.40
2008,07,13,06,39,16.40
2008,07,13,06,40,16.40
2008,07,13,06,41,16.50
2008,07,13,06,42,16.50
2008,07,13,06,43,16.50
2008,07,13,06,44,16.60
2008,07,13,06,45,16.60
2008,07,13,06,46,16.70
2008,07,13,06,47,16.80
2008,07,13,06,48,16.90
2008,07,13,06,49,16.90
2008,07,13,06,50,17.00
2008,07,13,06,51,17.10
2008,07,13,06,52,17.00
2008,07,13,06,53,16.90
2008,07,13,06,54,16.80
2008,07,13,06,55,16.80
2008,07,13,06,56,16.80
2008,07,13,06,57,16.80
2008,07,13,06,58,16.80
2008,07,13,06,59,16.80
2008,07,13,07,00,16.80
2008,07,13,07,01,16.70
2008,07,13,07,02,16.70
2008,07,13,07,03,16.80
2008,07,13,07,04,16.80
2008,07,13,07,05,16.80
2008,07,13,07,06,16.90
2008,07,13,07,07,16.90
2008,07,13,07,08,17.00
2008,07,13,07,09,17.10
2008,07,13,07,10,17.10
2008,07,13,07,11,17.20
2008,07,13,07,12,17.20
2008,07,13,07,13,17.20
2008,07,13,07,14,17.20
2008,07,13,07,15,17.20
2008,07,13,07,16,17.30
2008,07,13,07,17,17.30
2008,07,13,07,18,17.30
2008,07,13,07,19,17.30
2008,07,13,07,20,17.30
2008,07,13,07,21,17.30
2008,07,13,07,22,17.40
2008,07,13,07,23,17.40
2008,07,13,07,24,17.40
2008,07,13,07,25,17.40
2008,07,13,07,26,17.40
2008,07,13,07,27,17.30
2008,07,13,07,28,17.30
2008,07,13,07,29,17.30
2008,07,13,07,30,17.20
2008,07,13,07,31,17.20
2008,07,13,07,32,17.10
2008,07,13,07,33,17.10
2008,07,13,07,34,17.10
2008,07,13,07,35,17.10
2008,07,13,07,36,17.10
2008,07,13,07,37,17.10
2008,07,13,07,38,17.00
2008,07,13,07,39,17.00
2008,07,13,07,40,16.90
2008,07,13,07,41,16.90
2008,07,13,07,42,16.90
2008,07,13,07,43,16.80
2008,07,13,07,44,16.80
2008,07,13,07,45,16.80
2008,07,13,07,46,16.80
2008,07,13,07,47,16.80
2008,07,13,07,48,16.90
2008,07,13,07,49,16.90
2008,07,13,07,50,17.00
2008,07,13,07,51,17.10
2008,07,13,07,52,17.20
2008,07,13,07,53,17.20
2008,07,13,07,54,17.10
2008,07,13,07,55,17.00
2008,07,13,07,56,17.00
2008,07,13,07,57,17.00
2008,07,13,07,58,17.00
2008,07,13,07,59,17.00
2008,07,13,08,00,17.00
2008,07,13,08,01,17.00
2008,07,13,08,02,17.10
2008,07,13,08,03,17.20
2008,07,13,08,04,17.20
2008,07,13,08,05,17.30
2008,07,13,08,06,17.30
2008,07,13,08,07,17.30
2008,07,13,08,08,17.30
2008,07,13,08,09,17.30
2008,07,13,08,10,17.30
2008,07,13,08,11,17.30
2008,07,13,08,12,17.30
2008,07,13,08,13,17.40
2008,07,13,08,14,17.40
2008,07,13,08,15,17.50
2008,07,13,08,16,17.60
2008,07,13,08,17,17.60
2008,07,13,08,18,17.70
2008,07,13,08,19,17.80
2008,07,13,08,20,17.90
2008,07,13,08,21,17.90
2008,07,13,08,22,17.90
2008,07,13,08,23,18.00
2008,07,13,08,24,18.00
2008,07,13,08,25,18.10
2008,07,13,08,26,18.20
2008,07,13,08,27,18.30
2008,07,13,08,28,18.40
2008,07,13,08,29,18.50
2008,07,13,08,30,18.50
2008,07,13,08,31,18.60
2008,07,13,08,32,18.70
2008,07,13,08,33,18.70
2008,07,13,08,34,18.70
2008,07,13,08,35,18.70
2008,07,13,08,36,18.70
2008,07,13,08,37,18.70
2008,07,13,08,38,18.70
2008,07,13,08,39,18.70
2008,07,13,08,40,18.70
2008,07,13,08,41,18.70
2008,07,13,08,42,18.70
2008,07,13,08,43,18.70
2008,07,13,08,44,18.70
2008,07,13,08,45,18.70
2008,07,13,08,46,18.70
2008,07,13,08,47,18.80
2008,07,13,08,48,18.80
2008,07,13,08,49,18.80
2008,07,13,08,50,18.80
2008,07,13,08,51,18.90
2008,07,13,08,52,18.90
2008,07,13,08,53,18.90
2008,07,13,08,54,19.00
2008,07,13,08,55,19.10
2008,07,13,08,56,19.10
2008,07,13,08,57,19.20
2008,07,13,08,58,19.20
2008,07,13,08,59,19.30
2008,07,13,09,00,19.40
2008,07,13,09,01,19.40
2008,07,13,09,02,19.50
2008,07,13,09,03,19.60
2008,07,13,09,04,19.80
2008,07,13,09,05,19.90
2008,07,13,09,06,19.90
2008,07,13,09,07,19.90
2008,07,13,09,08,19.80
2008,07,13,09,09,19.80
2008,07,13,09,10,19.80
2008,07,13,09,11,19.80
2008,07,13,09,12,19.70
2008,07,13,09,13,19.50
2008,07,13,09,14,19.40
2008,07,13,09,15,19.20
2008,07,13,09,16,19.10
2008,07,13,09,17,19.10
2008,07,13,09,18,19.10
2008,07,13,09,19,19.10
2008,07,13,09,20,19.00
2008,07,13,09,21,19.00
2008,07,13,09,22,19.00
2008,07,13,09,23,19.10
2008,07,13,09,24,19.20
2008,07,13,09,25,19.20
2008,07,13,09,26,19.20
2008,07,13,09,27,19.20
2008,07,13,09,28,19.20
2008,07,13,09,29,19.30
2008,07,13,09,30,19.20
2008,07,13,09,31,19.20
2008,07,13,09,32,19.20
2008,07,13,09,33,19.10
2008,07,13,09,34,19.10
2008,07,13,09,35,19.10
2008,07,13,09,36,19.10
2008,07,13,09,37,19.10
2008,07,13,09,38,19.00
2008,07,13,09,39,18.90
2008,07,13,09,40,18.90
2008,07,13,09,41,18.90
2008,07,13,09,42,18.80
2008,07,13,09,43,18.80
2008,07,13,09,44,18.80
2008,07,13,09,45,18.70
2008,07,13,09,46,18.80
2008,07,13,09,47,18.80
2008,07,13,09,48,18.80
2008,07,13,09,49,18.80
2008,07,13,09,50,18.80
2008,07,13,09,51,18.80
2008,07,13,09,52,18.70
2008,07,13,09,53,18.70
2008,07,13,09,54,18.60
2008,07,13,09,55,18.50
2008,07,13,09,56,18.40
2008,07,13,09,57,18.40
2008,07,13,09,58,18.40
2008,07,13,09,59,18.40
2008,07,13,10,00,18.30
2008,07,13,10,01,18.30
2008,07,13,10,02,18.40
2008,07,13,10,03,18.50
2008,07,13,10,04,18.50
2008,07,13,10,05,18.60
2008,07,13,10,06,18.60
2008,07,13,10,07,18.80
2008,07,13,10,08,18.80
2008,07,13,10,09,18.80
2008,07,13,10,10,18.70
2008,07,13,10,11,18.70
2008,07,13,10,12,18.70
2008,07,13,10,13,18.70
2008,07,13,10,14,18.70
2008,07,13,10,15,18.50
2008,07,13,10,16,18.30
2008,07,13,10,17,18.20
2008,07,13,10,18,18.10
2008,07,13,10,19,17.90
2008,07,13,10,20,17.70
2008,07,13,10,21,17.60
2008,07,13,10,22,17.50
2008,07,13,10,23,17.40
2008,07,13,10,24,17.10
2008,07,13,10,25,17.00
2008,07,13,10,26,16.90
2008,07,13,10,27,17.00
2008,07,13,10,28,17.00
2008,07,13,10,29,16.80
2008,07,13,10,30,16.70
2008,07,13,10,31,16.70
2008,07,13,10,32,16.70
2008,07,13,10,33,16.80
2008,07,13,10,34,17.00
2008,07,13,10,35,17.10
2008,07,13,10,36,17.10
2008,07,13,10,37,17.10
2008,07,13,10,38,17.30
2008,07,13,10,39,17.30
2008,07,13,10,40,17.40
2008,07,13,10,41,17.40
2008,07,13,10,42,17.50
2008,07,13,10,43,17.70
2008,07,13,10,44,17.80
2008,07,13,10,45,18.00
2008,07,13,10,46,18.10
2008,07,13,10,47,18.10
2008,07,13,10,48,18.20
2008,07,13,10,49,18.30
2008,07,13,10,50,18.40
2008,07,13,10,51,18.40
2008,07,13,10,52,18.30
2008,07,13,10,53,18.30
2008,07,13,10,54,18.30
2008,07,13,10,55,18.30
2008,07,13,10,56,18.30
2008,07,13,10,57,18.30
2008,07,13,10,58,18.30
2008,07,13,10,59,18.40
2008,07,13,11,00,18.50
2008,07,13,11,01,18.60
2008,07,13,11,02,18.70
2008,07,13,11,03,18.70
2008,07,13,11,04,18.60
2008,07,13,11,05,18.80
2008,07,13,11,06,18.90
2008,07,13,11,07,19.00
2008,07,13,11,08,19.00
2008,07,13,11,09,19.00
2008,07,13,11,10,18.90
2008,07,13,11,11,18.80
2008,07,13,11,12,18.80
2008,07,13,11,13,18.70
2008,07,13,11,14,18.70
2008,07,13,11,15,18.60
2008,07,13,11,16,18.70
2008,07,13,11,17,18.60
2008,07,13,11,18,18.60
2008,07,13,11,19,18.60
2008,07,13,11,20,18.70
2008,07,13,11,21,18.80
2008,07,13,11,22,18.80
2008,07,13,11,23,18.80
2008,07,13,11,24,18.80
2008,07,13,11,25,18.80
2008,07,13,11,26,18.70
2008,07,13,11,27,18.60
2008,07,13,11,28,18.50
2008,07,13,11,29,18.30
2008,07,13,11,30,18.10
2008,07,13,11,31,18.00
2008,07,13,11,32,17.90
2008,07,13,11,33,17.90
2008,07,13,11,34,17.90
2008,07,13,11,35,17.90
2008,07,13,11,36,17.90
2008,07,13,11,37,18.00
2008,07,13,11,38,18.10
2008,07,13,11,39,18.20
2008,07,13,11,40,18.10
2008,07,13,11,41,18.10
2008,07,13,11,42,18.30
2008,07,13,11,43,18.30
2008,07,13,11,44,18.30
2008,07,13,11,45,18.20
2008,07,13,11,46,18.20
2008,07,13,11,47,18.20
2008,07,13,11,48,18.20
2008,07,13,11,49,18.10
2008,07,13,11,50,18.00
2008,07,13,11,51,17.90
2008,07,13,11,52,18.00
2008,07,13,11,53,18.20
2008,07,13,11,54,18.30
2008,07,13,11,55,18.50
2008,07,13,11,56,18.60
2008,07,13,11,57,18.60
2008,07,13,11,58,18.60
2008,07,13,11,59,18.70
2008,07,13,12,00,18.60
2008,07,13,12,01,18.50
2008,07,13,12,02,18.40
2008,07,13,12,03,18.40
2008,07,13,12,04,18.30
2008,07,13,12,05,18.40
2008,07,13,12,06,18.30
2008,07,13,12,07,18.30
2008,07,13,12,08,18.20
2008,07,13,12,09,18.10
2008,07,13,12,10,18.00
2008,07,13,12,11,18.00
2008,07,13,12,12,17.80
2008,07,13,12,13,17.80
2008,07,13,12,14,17.80
2008,07,13,12,15,17.80
2008,07,13,12,16,17.70
2008,07,13,12,17,17.70
2008,07,13,12,18,17.60
2008,07,13,12,19,17.60
2008,07,13,12,20,17.70
2008,07,13,12,21,17.70
2008,07,13,12,22,17.80
2008,07,13,12,23,18.00
2008,07,13,12,24,18.00
2008,07,13,12,25,18.00
2008,07,13,12,26,18.00
2008,07,13,12,27,18.00
2008,07,13,12,28,18.00
2008,07,13,12,29,18.00
2008,07,13,12,30,17.90
2008,07,13,12,31,17.90
2008,07,13,12,32,17.90
2008,07,13,12,33,17.90
2008,07,13,12,34,18.10
2008,07,13,12,35,18.30
2008,07,13,12,36,18.40
2008,07,13,12,37,18.40
2008,07,13,12,38,18.30
2008,07,13,12,39,18.10
2008,07,13,12,40,18.00
2008,07,13,12,41,17.90
2008,07,13,12,42,18.00
2008,07,13,12,43,18.10
2008,07,13,12,44,18.20
2008,07,13,12,45,18.00
2008,07,13,12,46,17.80
2008,07,13,12,47,17.60
2008,07,13,12,48,17.30
2008,07,13,12,49,17.10
2008,07,13,12,50,16.90
2008,07,13,12,51,16.80
2008,07,13,12,52,16.90
2008,07,13,12,53,17.00
2008,07,13,12,54,17.10
2008,07,13,12,55,17.30
2008,07,13,12,56,17.40
2008,07,13,12,57,17.50
2008,07,13,12,58,17.50
2008,07,13,12,59,17.50
2008,07,13,13,00,17.40
2008,07,13,13,01,17.50
2008,07,13,13,02,17.70
2008,07,13,13,03,18.00
2008,07,13,13,04,18.10
2008,07,13,13,05,18.00
2008,07,13,13,06,18.00
2008,07,13,13,07,17.90
2008,07,13,13,08,17.80
2008,07,13,13,09,17.60
2008,07,13,13,10,17.40
2008,07,13,13,11,17.20
2008,07,13,13,12,17.10
2008,07,13,13,13,16.80
2008,07,13,13,14,16.60
2008,07,13,13,15,16.50
2008,07,13,13,16,16.40
2008,07,13,13,17,16.40
2008,07,13,13,18,16.50
2008,07,13,13,19,16.50
2008,07,13,13,20,16.60
2008,07,13,13,21,16.70
2008,07,13,13,22,16.60
2008,07,13,13,23,16.60
2008,07,13,13,24,16.70
2008,07,13,13,25,16.80
2008,07,13,13,26,17.00
2008,07,13,13,27,17.00
2008,07,13,13,28,16.90
2008,07,13,13,29,16.90
2008,07,13,13,30,16.90
2008,07,13,13,31,16.70
2008,07,13,13,32,16.50
2008,07,13,13,33,16.40
2008,07,13,13,34,16.40
2008,07,13,13,35,16.50
2008,07,13,13,36,16.70
2008,07,13,13,37,16.80
2008,07,13,13,38,16.90
2008,07,13,13,39,16.90
2008,07,13,13,40,16.70
2008,07,13,13,41,16.50
2008,07,13,13,42,16.30
2008,07,13,13,43,16.30
2008,07,13,13,44,16.30
2008,07,13,13,45,16.50
2008,07,13,13,46,16.60
2008,07,13,13,47,16.50
2008,07,13,13,48,16.40
2008,07,13,13,49,16.30
2008,07,13,13,50,16.30
2008,07,13,13,51,16.30
2008,07,13,13,52,16.40
2008,07,13,13,53,16.20
2008,07,13,13,54,16.00
2008,07,13,13,55,15.80
2008,07,13,13,56,15.70
2008,07,13,13,57,15.60
2008,07,13,13,58,15.50
2008,07,13,13,59,15.60
2008,07,13,14,00,15.60
2008,07,13,14,01,15.60
2008,07,13,14,02,15.70
2008,07,13,14,03,15.80
2008,07,13,14,04,15.90
2008,07,13,14,05,15.90
2008,07,13,14,06,16.10
2008,07,13,14,07,16.40
2008,07,13,14,08,16.40
2008,07,13,14,09,16.50
2008,07,13,14,10,16.60
2008,07,13,14,11,16.70
2008,07,13,14,12,16.80
2008,07,13,14,13,16.90
2008,07,13,14,14,17.00
2008,07,13,14,15,17.20
2008,07,13,14,16,17.40
2008,07,13,14,17,17.50
2008,07,13,14,18,17.50
2008,07,13,14,19,17.50
2008,07,13,14,20,17.60
2008,07,13,14,21,17.80
2008,07,13,14,22,17.90
2008,07,13,14,23,17.90
2008,07,13,14,24,17.80
2008,07,13,14,25,17.80
2008,07,13,14,26,17.80
2008,07,13,14,27,17.70
2008,07,13,14,28,17.60
2008,07,13,14,29,17.50
2008,07,13,14,30,17.50
2008,07,13,14,31,17.50
2008,07,13,14,32,17.40
2008,07,13,14,33,17.20
2008,07,13,14,34,17.00
2008,07,13,14,35,17.00
2008,07,13,14,36,17.00
2008,07,13,14,37,17.10
2008,07,13,14,38,17.20
2008,07,13,14,39,17.30
2008,07,13,14,40,17.40
2008,07,13,14,41,17.60
2008,07,13,14,42,17.80
2008,07,13,14,43,17.80
2008,07,13,14,44,17.90
2008,07,13,14,45,17.90
2008,07,13,14,46,17.90
2008,07,13,14,47,17.80
2008,07,13,14,48,17.70
2008,07,13,14,49,17.60
2008,07,13,14,50,17.60
2008,07,13,14,51,17.70
2008,07,13,14,52,17.80
2008,07,13,14,53,17.90
2008,07,13,14,54,18.00
2008,07,13,14,55,18.10
2008,07,13,14,56,18.10
2008,07,13,14,57,18.20
2008,07,13,14,58,18.10
2008,07,13,14,59,18.10
2008,07,13,15,00,18.20
2008,07,13,15,01,18.30
2008,07,13,15,02,18.40
2008,07,13,15,03,18.40
2008,07,13,15,04,18.40
2008,07,13,15,05,18.10
2008,07,13,15,06,17.70
2008,07,13,15,07,17.40
2008,07,13,15,08,17.30
2008,07,13,15,09,17.40
2008,07,13,15,10,17.60
2008,07,13,15,11,17.70
2008,07,13,15,12,17.90
2008,07,13,15,13,18.00
2008,07,13,15,14,18.00
2008,07,13,15,15,18.00
2008,07,13,15,16,18.00
2008,07,13,15,17,18.10
2008,07,13,15,18,18.10
2008,07,13,15,19,18.10
2008,07,13,15,20,18.20
2008,07,13,15,21,18.30
2008,07,13,15,22,18.40
2008,07,13,15,23,18.50
2008,07,13,15,24,18.70
2008,07,13,15,25,18.70
2008,07,13,15,26,18.70
2008,07,13,15,27,18.70
2008,07,13,15,28,18.70
2008,07,13,15,29,18.80
2008,07,13,15,30,18.90
2008,07,13,15,31,19.00
2008,07,13,15,32,19.00
2008,07,13,15,33,19.10
2008,07,13,15,34,19.00
2008,07,13,15,35,19.00
2008,07,13,15,36,19.10
2008,07,13,15,37,19.20
2008,07,13,15,38,19.30
2008,07,13,15,39,19.30
2008,07,13,15,40,19.40
2008,07,13,15,41,19.30
2008,07,13,15,42,19.30
2008,07,13,15,43,19.20
2008,07,13,15,44,19.10
2008,07,13,15,45,19.10
2008,07,13,15,46,19.20
2008,07,13,15,47,19.30
2008,07,13,15,48,19.40
2008,07,13,15,49,19.60
2008,07,13,15,50,19.80
2008,07,13,15,51,20.00
2008,07,13,15,52,20.10
2008,07,13,15,53,20.30
2008,07,13,15,54,20.50
2008,07,13,15,55,20.70
2008,07,13,15,56,20.90
2008,07,13,15,57,21.10
2008,07,13,15,58,21.50
2008,07,13,15,59,21.80
2008,07,13,16,00,22.10
2008,07,13,16,01,22.40
2008,07,13,16,02,22.60
2008,07,13,16,03,22.80
2008,07,13,16,04,22.90
2008,07,13,16,05,23.20
2008,07,13,16,06,23.40
2008,07,13,16,07,23.60
2008,07,13,16,08,23.70
2008,07,13,16,09,23.70
2008,07,13,16,10,23.70
2008,07,13,16,11,23.80
2008,07,13,16,12,24.10
2008,07,13,16,13,24.40
2008,07,13,16,14,24.70
2008,07,13,16,15,25.00
2008,07,13,16,16,25.30
2008,07,13,16,17,25.40
2008,07,13,16,18,25.50
2008,07,13,16,19,25.60
2008,07,13,16,20,25.70
2008,07,13,16,21,25.80
2008,07,13,16,22,25.90
2008,07,13,16,23,26.10
2008,07,13,16,24,26.30
2008,07,13,16,25,26.40
2008,07,13,16,26,26.50
2008,07,13,16,27,26.60
2008,07,13,16,28,26.70
2008,07,13,16,29,26.70
2008,07,13,16,30,26.70
2008,07,13,16,31,26.80
2008,07,13,16,32,26.80
2008,07,13,16,33,26.90
2008,07,13,16,34,27.00
2008,07,13,16,35,27.00
2008,07,13,16,36,27.00
2008,07,13,16,37,27.00
2008,07,13,16,38,27.00
2008,07,13,16,39,26.90
2008,07,13,16,40,26.80
2008,07,13,16,41,26.80
2008,07,13,16,42,26.80
2008,07,13,16,43,26.80
2008,07,13,16,44,26.80
2008,07,13,16,45,26.60
2008,07,13,16,46,26.60
2008,07,13,16,47,26.60
2008,07,13,16,48,26.60
2008,07,13,16,49,26.50
2008,07,13,16,50,26.40
2008,07,13,16,51,26.30
2008,07,13,16,52,26.30
2008,07,13,16,53,26.30
2008,07,13,16,54,26.30
2008,07,13,16,55,26.20
2008,07,13,16,56,26.20
2008,07,13,16,57,26.20
2008,07,13,16,58,26.30
2008,07,13,16,59,26.30
2008,07,13,17,00,26.30
2008,07,13,17,01,26.30
2008,07,13,17,02,26.30
2008,07,13,17,03,26.30
2008,07,13,17,04,26.30
2008,07,13,17,05,26.10
2008,07,13,17,06,26.00
2008,07,13,17,07,25.90
2008,07,13,17,08,25.90
2008,07,13,17,09,25.90
2008,07,13,17,10,25.70
2008,07,13,17,11,25.70
2008,07,13,17,12,25.60
2008,07,13,17,13,25.60
2008,07,13,17,14,25.70
2008,07,13,17,15,25.70
2008,07,13,17,16,25.80
2008,07,13,17,17,25.80
2008,07,13,17,18,25.80
2008,07,13,17,19,25.90